This is the latest recevied weather packets stored in our database for station/object SP9KB-14. If no packets are shown the sender has not sent any weather packets the latest 10 day(s).
| Time | Temp. | Humidity | Pressure | Rain* | Wind** | Luminosity | Snow |
|---|---|---|---|---|---|---|---|
| 1777883887 | 21.67° C | 42% | 1039.2 hPa | 0 mm | - | - | - |
| 1777883586 | 21.67° C | 42% | 1039.2 hPa | 0 mm | - | - | - |
| 1777883285 | 22.22° C | 41% | 1039.4 hPa | 0 mm | - | - | - |
| 1777882985 | 21.67° C | 42% | 1039.4 hPa | 0 mm | - | - | - |
| 1777882684 | 21.67° C | 41% | 1039.3 hPa | 0 mm | - | - | - |
| 1777882384 | 21.67° C | 42% | 1039 hPa | 0 mm | - | - | - |
| 1777882083 | 21.11° C | 44% | 1039.2 hPa | 0 mm | - | - | - |
| 1777881782 | 21.11° C | 42% | 1039 hPa | 0 mm | - | - | - |
| 1777881482 | 21.11° C | 43% | 1039.1 hPa | 0 mm | - | - | - |
| 1777881181 | 20.56° C | 43% | 1039.2 hPa | 0 mm | - | - | - |
| 1777880881 | 20.56° C | 43% | 1039.4 hPa | 0 mm | - | - | - |
| 1777880580 | 20° C | 45% | 1039.4 hPa | 0 mm | - | - | - |
| 1777880279 | 20° C | 44% | 1039.3 hPa | 0 mm | - | - | - |
| 1777879979 | 20° C | 44% | 1039.3 hPa | 0 mm | - | - | - |
| 1777879678 | 20° C | 45% | 1039.1 hPa | 0 mm | - | - | - |
| 1777879378 | 20° C | 43% | 1039.3 hPa | 0 mm | - | - | - |
| 1777879077 | 19.44° C | 44% | 1039.2 hPa | 0 mm | - | - | - |
| 1777878776 | 20° C | 45% | 1038.9 hPa | 0 mm | - | - | - |
| 1777878476 | 19.44° C | 45% | 1039 hPa | 0 mm | - | - | - |
| 1777878176 | 18.89° C | 47% | 1039.1 hPa | 0 mm | - | - | - |
| 1777877875 | 18.89° C | 46% | 1039.2 hPa | 0 mm | - | - | - |
| 1777877573 | 18.33° C | 47% | 1039.1 hPa | 0 mm | - | - | - |
| 1777877273 | 18.33° C | 47% | 1039.1 hPa | 0 mm | - | - | - |
| 1777876972 | 18.33° C | 47% | 1039.3 hPa | 0 mm | - | - | - |
| 1777876671 | 18.33° C | 48% | 1039.2 hPa | 0 mm | - | - | - |
* Rain latest hour (hover to see other rain measurements)
** Current wind speed in m/s (hover to see current wind gust speed)